Regional Weather Roundup
Issued by NWS

Home | Current Version | Previous Version | Graphics & Text | Print | Product List | Glossary On
Versions: 1 2 3 4 5 6 7 8 9 10 11 12 13 14 15 16 17 18 19 20 21 22 23 24 25 26 27 28 29 30 31 32 33 34 35 36 37 38 39 40 41 42 43 44 45 46 47 48 49 50
000
ASUS43 KOAX 291610
RWRNE

WEATHER ROUNDUP FOR NEBRASKA
NATIONAL WEATHER SERVICE OMAHA NE
1100 AM CDT WED MAR 29 2017

NOTES: SATELLITE DATA IS BEING USED TO AUGMENT CLOUD COVER ABOVE
       12000 FEET.
       "FAIR" INDICATES FEW OR NO CLOUDS BELOW 12,000 FEET WITH NO
       SIGNIFICANT WEATHER AND/OR OBSTRUCTIONS TO VISIBILITY.

  * THESE STATIONS DO NOT REPORT WEATHER SUCH AS RAIN...SNOW OR FOG.

NEZ001>004-019>022-054>056-291700-
NEBRASKA PANHANDLE

CITY           SKY/WX    TMP DP  RH WIND       PRES   REMARKS
SCOTTSBLUFF    CLOUDY    46  40  79 NW8       30.11S
ALLIANCE       CLOUDY    42  39  89 N7        30.10S
CHADRON        CLOUDY    45  40  82 NW8       30.11S
KIMBALL        CLOUDY    41  41 100 N10       30.11S
SIDNEY         CLOUDY    40  37  89 N10       30.11R WCI  33
$$

NEZ057>060-069>072-079>082-291700-
SOUTHWEST NEBRASKA

CITY           SKY/WX    TMP DP  RH WIND       PRES   REMARKS
NORTH PLATTE   CLOUDY    44  40  85 N15       30.04S
IMPERIAL       CLOUDY    42  39  89 N16G23    30.05F FOG
LEXINGTON      CLOUDY    44  41  91 N18       30.00S
MCCOOK         LGT RAIN  43  42  97 N21       30.00R FOG
OGALLALA       CLOUDY    44  41  89 N9        30.08S
$$

NEZ005>010-023>029-035>040-094-291700-
NORTH CENTRAL NEBRASKA

CITY           SKY/WX    TMP DP  RH WIND       PRES   REMARKS
VALENTINE      CLOUDY    47  41  80 NE9       30.11S
AINSWORTH      CLOUDY    45  44  95 N13       30.10S
BROKEN BOW     CLOUDY    44  40  85 N16       30.02S
O`NEILL        DRIZZLE   46  44  93 NE13      30.09R
ORD            LGT RAIN  44  40  85 NE12      30.02F
THEDFORD       CLOUDY    44  41  91 N8        30.09S
$$

NEZ041-046>049-061>064-073>077-083>087-291700-
SOUTH CENTRAL NEBRASKA

CITY           SKY/WX    TMP DP  RH WIND       PRES   REMARKS
GRAND ISLAND   CLOUDY    44  43  96 NE18G26   29.98S
AURORA         CLOUDY    44  44  99 NE20G28   29.96S
HASTINGS       CLOUDY    44  42  93 NE21G29   29.96R
HEBRON         RAIN      45  44  97 NE21      29.88S
HOLDREGE       LGT RAIN  43  41  94 N17G24    29.96S
KEARNEY *      CLOUDY    43  39  87 NE20      29.98S
YORK           CLOUDY    45  45 100 NE21      29.95S
$$

NEZ011>018-030>034-042>045-291700-
NORTHEAST NEBRASKA

CITY           SKY/WX    TMP DP  RH WIND       PRES   REMARKS
NORFOLK        CLOUDY    44  40  85 E14G23    30.03S
ALBION         CLOUDY    46  42  86 NE15G21   30.02S
BLAIR          LGT RAIN  44  42  93 NE16G26   29.98F
FREMONT        DRIZZLE   44  42  95 NE14G21   30.00F
TEKAMAH        LGT RAIN  45  40  82 NE15      30.03F
WAYNE          DRIZZLE   45  43  94 E18G26    30.05F
$$

NEZ050>053-065>068-078-088>093-291700-
SOUTHEAST NEBRASKA

CITY           SKY/WX    TMP DP  RH WIND       PRES   REMARKS
LINCOLN        LGT RAIN  46  44  93 NE18      29.94F
OMAHA EPPLEY   LGT RAIN  45  40  82 E22       29.98F
BEATRICE       LGT RAIN  46  46  99 NE22      29.88S
FALLS CITY     LGT RAIN  47  46  97 NE16G23   29.84F FOG
NEBRASKA CITY  LGT RAIN  43  43 100 NE20G28   29.90F
PLATTSMOUTH    LGT RAIN  44  40  88 NE17G26   29.94F
$$

NEZ044-045-051>053-067-291700-
OMAHA AREA

CITY           SKY/WX    TMP DP  RH WIND       PRES   REMARKS
OMAHA EPPLEY   LGT RAIN  45  40  82 E22       29.98F
BLAIR          LGT RAIN  44  42  93 NE16G26   29.98F
FREMONT        DRIZZLE   44  42  95 NE14G21   30.00F
MILLARD        LGT RAIN  46  44  90 NE7       29.97F
OFFUTT AFB     RAIN      44  41  90 NE16G23   29.95F
PLATTSMOUTH    LGT RAIN  44  40  88 NE17G26   29.94F
WAHOO          DRIZZLE   45  42  92 NE18      29.97F
$$



USA.gov is the U.S. government's official web portal to all federal, state and local government web resources and services.